Time,TemperatureF,DewpointF,PressureIn,WindDirection,WindDirectionDegrees,WindSpeedMPH,WindSpeedGustMPH,Humidity,HourlyPrecipIn,Conditions,Clouds,dailyrainin,SoftwareType,DateUTC
2013-08-04 00:01:00,63.6,55.2,29.79,WSW,244,0.0,0.0,74,0.00,,,0.00,WeatherCatV1.10B1784,2013-08-04 04:01:00,
2013-08-04 00:06:00,63.4,55.0,29.80,WSW,244,0.0,0.0,74,0.00,,,0.00,WeatherCatV1.10B1784,2013-08-04 04:06:00,
2013-08-04 00:11:00,63.2,54.8,29.79,WSW,244,0.0,0.0,74,0.00,,,0.00,WeatherCatV1.10B1784,2013-08-04 04:11:00,
2013-08-04 00:16:00,63.1,54.7,29.79,WSW,244,0.0,0.0,74,0.00,,,0.00,WeatherCatV1.10B1784,2013-08-04 04:16:00,
2013-08-04 00:21:00,63.0,54.6,29.79,WSW,244,0.0,0.0,74,0.00,,,0.00,WeatherCatV1.10B1784,2013-08-04 04:21:00,
2013-08-04 00:26:00,62.9,54.1,29.79,WSW,244,0.0,0.0,73,0.00,,,0.00,WeatherCatV1.10B1784,2013-08-04 04:26:00,
2013-08-04 00:31:00,63.0,54.2,29.79,WSW,244,0.0,3.0,73,0.00,,,0.00,WeatherCatV1.10B1784,2013-08-04 04:31:00,
2013-08-04 00:36:00,63.1,54.3,29.78,WSW,244,0.0,0.0,73,0.00,,,0.00,WeatherCatV1.10B1784,2013-08-04 04:36:00,
2013-08-04 00:41:00,63.2,54.0,29.78,WSW,244,0.0,3.0,72,0.00,,,0.00,WeatherCatV1.10B1784,2013-08-04 04:41:00,
2013-08-04 00:46:00,63.3,54.1,29.78,WSW,244,0.0,0.0,72,0.00,,,0.00,WeatherCatV1.10B1784,2013-08-04 04:46:00,
2013-08-04 00:51:00,63.4,54.2,29.78,WSW,244,0.0,0.0,72,0.00,,,0.00,WeatherCatV1.10B1784,2013-08-04 04:51:00,
2013-08-04 00:56:00,63.4,53.8,29.78,WSW,244,0.0,0.0,71,0.00,,,0.00,WeatherCatV1.10B1784,2013-08-04 04:56:00,
2013-08-04 01:01:00,63.5,53.9,29.78,WSW,257,0.0,5.0,71,0.00,,,0.00,WeatherCatV1.10B1784,2013-08-04 05:01:00,
2013-08-04 01:06:00,63.4,53.8,29.78,WSW,257,0.0,0.0,71,0.00,,,0.00,WeatherCatV1.10B1784,2013-08-04 05:06:00,
2013-08-04 01:11:00,63.4,53.8,29.78,WSW,257,0.0,0.0,71,0.00,,,0.00,WeatherCatV1.10B1784,2013-08-04 05:11:00,
2013-08-04 01:16:00,63.4,53.8,29.78,WSW,257,0.0,1.0,71,0.00,,,0.00,WeatherCatV1.10B1784,2013-08-04 05:16:00,
2013-08-04 01:21:00,63.4,53.8,29.78,WSW,257,0.0,0.0,71,0.00,,,0.00,WeatherCatV1.10B1784,2013-08-04 05:21:00,
2013-08-04 01:26:00,63.4,53.8,29.78,WSW,257,0.0,2.0,71,0.00,,,0.00,WeatherCatV1.10B1784,2013-08-04 05:26:00,
2013-08-04 01:31:00,63.4,53.8,29.78,WSW,257,0.0,0.0,71,0.00,,,0.00,WeatherCatV1.10B1784,2013-08-04 05:31:00,
2013-08-04 01:36:00,63.2,53.6,29.78,WSW,257,0.0,1.0,71,0.00,,,0.00,WeatherCatV1.10B1784,2013-08-04 05:36:00,
2013-08-04 01:41:00,63.0,53.8,29.77,WSW,257,1.0,5.0,72,0.00,,,0.00,WeatherCatV1.10B1784,2013-08-04 05:41:00,
2013-08-04 01:46:00,62.8,53.6,29.77,WSW,257,0.0,0.0,72,0.00,,,0.00,WeatherCatV1.10B1784,2013-08-04 05:46:00,
2013-08-04 01:51:00,62.7,53.5,29.78,WSW,257,0.0,1.0,72,0.00,,,0.00,WeatherCatV1.10B1784,2013-08-04 05:51:00,
2013-08-04 01:54:00,62.8,53.6,29.77,WSW,257,0.0,0.0,72,0.00,,,0.00,WeatherCatV1.10B1784,2013-08-04 05:54:00,
2013-08-04 01:59:00,63.0,53.8,29.78,WSW,257,0.0,0.0,72,0.00,,,0.00,WeatherCatV1.10B1784,2013-08-04 05:59:00,
2013-08-04 02:04:00,63.2,53.2,29.78,WSW,257,0.0,5.0,70,0.00,,,0.00,WeatherCatV1.10B1784,2013-08-04 06:04:00,
2013-08-04 02:09:00,63.3,53.3,29.77,NW,319,0.0,3.0,70,0.00,,,0.00,WeatherCatV1.10B1784,2013-08-04 06:09:00,
2013-08-04 02:14:00,63.4,53.4,29.77,West,281,0.0,4.0,70,0.00,,,0.00,WeatherCatV1.10B1784,2013-08-04 06:14:00,
2013-08-04 02:19:00,63.4,53.4,29.77,WNW,286,0.0,2.0,70,0.00,,,0.00,WeatherCatV1.10B1784,2013-08-04 06:19:00,
2013-08-04 02:24:00,63.4,53.4,29.77,WNW,286,0.0,0.0,70,0.00,,,0.00,WeatherCatV1.10B1784,2013-08-04 06:24:00,
2013-08-04 02:29:00,63.3,53.3,29.77,WNW,282,0.0,4.0,70,0.00,,,0.00,WeatherCatV1.10B1784,2013-08-04 06:29:00,
2013-08-04 02:34:00,63.2,53.2,29.78,WNW,282,0.0,0.0,70,0.00,,,0.00,WeatherCatV1.10B1784,2013-08-04 06:34:00,
2013-08-04 02:39:00,63.1,53.2,29.78,WNW,282,0.0,0.0,70,0.00,,,0.00,WeatherCatV1.10B1784,2013-08-04 06:39:00,
2013-08-04 02:44:00,63.1,53.5,29.77,West,281,0.0,0.0,71,0.00,,,0.00,WeatherCatV1.10B1784,2013-08-04 06:44:00,
2013-08-04 02:49:00,63.0,53.4,29.77,West,281,0.0,2.0,71,0.00,,,0.00,WeatherCatV1.10B1784,2013-08-04 06:49:00,
2013-08-04 02:54:00,62.9,53.7,29.77,West,281,1.0,1.0,72,0.00,,,0.00,WeatherCatV1.10B1784,2013-08-04 06:54:00,
2013-08-04 02:59:00,62.8,53.6,29.77,West,281,0.0,1.0,72,0.00,,,0.00,WeatherCatV1.10B1784,2013-08-04 06:59:00,
2013-08-04 03:04:00,62.6,53.8,29.77,West,280,0.0,4.0,73,0.00,,,0.00,WeatherCatV1.10B1784,2013-08-04 07:04:00,
2013-08-04 03:09:00,62.6,53.8,29.77,West,281,0.0,1.0,73,0.00,,,0.00,WeatherCatV1.10B1784,2013-08-04 07:09:00,
2013-08-04 03:14:00,62.4,53.6,29.77,West,281,0.0,2.0,73,0.00,,,0.00,WeatherCatV1.10B1784,2013-08-04 07:14:00,
2013-08-04 03:19:00,62.3,53.5,29.77,West,281,0.0,3.0,73,0.00,,,0.00,WeatherCatV1.10B1784,2013-08-04 07:19:00,
2013-08-04 03:24:00,62.1,53.7,29.77,West,281,0.0,2.0,74,0.00,,,0.00,WeatherCatV1.10B1784,2013-08-04 07:24:00,
2013-08-04 03:29:00,62.1,53.7,29.77,West,281,0.0,1.0,74,0.00,,,0.00,WeatherCatV1.10B1784,2013-08-04 07:29:00,
2013-08-04 03:34:00,62.1,53.7,29.77,West,281,0.0,2.0,74,0.00,,,0.00,WeatherCatV1.10B1784,2013-08-04 07:34:00,
2013-08-04 03:39:00,62.0,53.6,29.77,West,281,0.0,3.0,74,0.00,,,0.00,WeatherCatV1.10B1784,2013-08-04 07:39:00,
2013-08-04 03:44:00,62.0,54.0,29.77,West,281,0.0,1.0,75,0.00,,,0.00,WeatherCatV1.10B1784,2013-08-04 07:44:00,
2013-08-04 03:49:00,61.8,54.2,29.77,West,281,0.0,1.0,76,0.00,,,0.00,WeatherCatV1.10B1784,2013-08-04 07:49:00,
2013-08-04 03:51:00,61.7,54.1,29.77,West,281,0.0,0.0,76,0.00,,,0.00,WeatherCatV1.10B1784,2013-08-04 07:51:00,
2013-08-04 03:56:00,61.5,53.9,29.77,West,281,0.0,0.0,76,0.00,,,0.00,WeatherCatV1.10B1784,2013-08-04 07:56:00,
2013-08-04 04:01:00,61.3,53.7,29.77,West,281,0.0,0.0,76,0.00,,,0.00,WeatherCatV1.10B1784,2013-08-04 08:01:00,
2013-08-04 04:06:00,61.0,53.4,29.78,West,281,0.0,1.0,76,0.00,,,0.00,WeatherCatV1.10B1784,2013-08-04 08:06:00,
2013-08-04 04:11:00,60.7,53.8,29.77,West,281,0.0,0.0,78,0.00,,,0.00,WeatherCatV1.10B1784,2013-08-04 08:11:00,
2013-08-04 04:16:00,60.0,53.8,29.77,West,281,0.0,0.0,80,0.00,,,0.00,WeatherCatV1.10B1784,2013-08-04 08:16:00,
2013-08-04 04:21:00,59.4,53.6,29.78,West,281,2.0,2.0,81,0.00,,,0.00,WeatherCatV1.10B1784,2013-08-04 08:21:00,
2013-08-04 04:26:00,58.8,53.0,29.77,West,281,0.0,0.0,81,0.00,,,0.00,WeatherCatV1.10B1784,2013-08-04 08:26:00,
2013-08-04 04:31:00,58.4,52.9,29.78,West,281,0.0,2.0,82,0.00,,,0.00,WeatherCatV1.10B1784,2013-08-04 08:31:00,
2013-08-04 04:36:00,58.1,53.0,29.77,West,280,3.0,3.0,83,0.00,,,0.00,WeatherCatV1.10B1784,2013-08-04 08:36:00,
2013-08-04 04:41:00,58.0,52.9,29.78,West,277,0.0,0.0,83,0.00,,,0.00,WeatherCatV1.10B1784,2013-08-04 08:41:00,
2013-08-04 04:46:00,57.8,53.0,29.77,West,277,0.0,0.0,84,0.00,,,0.00,WeatherCatV1.10B1784,2013-08-04 08:46:00,
2013-08-04 04:51:00,57.5,52.7,29.78,West,277,0.0,0.0,84,0.00,,,0.00,WeatherCatV1.10B1784,2013-08-04 08:51:00,
2013-08-04 04:56:00,57.4,52.9,29.78,West,277,0.0,0.0,85,0.00,,,0.00,WeatherCatV1.10B1784,2013-08-04 08:56:00,
2013-08-04 05:01:00,57.3,53.1,29.78,West,277,0.0,0.0,86,0.00,,,0.00,WeatherCatV1.10B1784,2013-08-04 09:01:00,
2013-08-04 05:06:00,57.2,53.0,29.78,West,277,0.0,0.0,86,0.00,,,0.00,WeatherCatV1.10B1784,2013-08-04 09:06:00,
2013-08-04 05:11:00,57.0,52.9,29.78,West,277,0.0,0.0,86,0.00,,,0.00,WeatherCatV1.10B1784,2013-08-04 09:11:00,
2013-08-04 05:16:00,56.9,53.1,29.78,West,277,0.0,0.0,87,0.00,,,0.00,WeatherCatV1.10B1784,2013-08-04 09:16:00,
2013-08-04 05:21:00,56.8,53.3,29.78,West,277,0.0,0.0,88,0.00,,,0.00,WeatherCatV1.10B1784,2013-08-04 09:21:00,
2013-08-04 05:26:00,56.7,53.2,29.78,West,277,0.0,0.0,88,0.00,,,0.00,WeatherCatV1.10B1784,2013-08-04 09:26:00,
2013-08-04 05:31:00,56.7,53.2,29.78,West,277,0.0,0.0,88,0.00,,,0.00,WeatherCatV1.10B1784,2013-08-04 09:31:00,
2013-08-04 05:36:00,56.7,53.5,29.78,West,277,0.0,0.0,89,0.00,,,0.00,WeatherCatV1.10B1784,2013-08-04 09:36:00,
2013-08-04 05:41:00,56.7,53.5,29.78,West,277,0.0,0.0,89,0.00,,,0.00,WeatherCatV1.10B1784,2013-08-04 09:41:00,
2013-08-04 05:46:00,56.9,54.0,29.78,West,277,2.0,2.0,90,0.00,,,0.00,WeatherCatV1.10B1784,2013-08-04 09:46:00,
2013-08-04 05:51:00,57.3,54.1,29.78,West,277,0.0,1.0,89,0.00,,,0.00,WeatherCatV1.10B1784,2013-08-04 09:51:00,
2013-08-04 05:56:00,57.6,54.1,29.78,West,277,0.0,0.0,88,0.00,,,0.00,WeatherCatV1.10B1784,2013-08-04 09:56:00,
2013-08-04 06:01:00,57.9,54.4,29.78,West,277,0.0,0.0,88,0.00,,,0.00,WeatherCatV1.10B1784,2013-08-04 10:01:00,
2013-08-04 06:06:00,58.3,54.4,29.78,West,277,1.0,2.0,87,0.00,,,0.00,WeatherCatV1.10B1784,2013-08-04 10:06:00,
2013-08-04 06:11:00,59.1,54.6,29.78,West,277,0.0,2.0,85,0.00,,,0.00,WeatherCatV1.10B1784,2013-08-04 10:11:00,
2013-08-04 06:16:00,59.6,54.8,29.78,West,277,0.0,1.0,84,0.00,,,0.00,WeatherCatV1.10B1784,2013-08-04 10:16:00,
2013-08-04 06:21:00,60.2,54.7,29.78,West,277,0.0,1.0,82,0.00,,,0.00,WeatherCatV1.10B1784,2013-08-04 10:21:00,
2013-08-04 06:26:00,60.7,54.8,29.78,West,277,0.0,3.0,81,0.00,,,0.00,WeatherCatV1.10B1784,2013-08-04 10:26:00,
2013-08-04 06:31:00,60.9,55.0,29.78,West,276,1.0,5.0,81,0.00,,,0.00,WeatherCatV1.10B1784,2013-08-04 10:31:00,
2013-08-04 06:36:00,61.2,55.0,29.78,WNW,282,0.0,5.0,80,0.00,,,0.00,WeatherCatV1.10B1784,2013-08-04 10:36:00,
2013-08-04 06:41:00,61.3,55.1,29.78,West,274,1.0,3.0,80,0.00,,,0.00,WeatherCatV1.10B1784,2013-08-04 10:41:00,
2013-08-04 06:46:00,61.3,55.1,29.78,West,267,0.0,0.0,80,0.00,,,0.00,WeatherCatV1.10B1784,2013-08-04 10:46:00,
2013-08-04 06:51:00,61.3,55.4,29.79,West,267,1.0,2.0,81,0.00,,,0.00,WeatherCatV1.10B1784,2013-08-04 10:51:00,
2013-08-04 06:56:00,61.3,55.4,29.78,West,267,0.0,1.0,81,0.00,,,0.00,WeatherCatV1.10B1784,2013-08-04 10:56:00,
2013-08-04 07:01:00,61.3,55.4,29.78,West,276,0.0,3.0,81,0.00,,,0.00,WeatherCatV1.10B1784,2013-08-04 11:01:00,
2013-08-04 07:06:00,61.3,55.1,29.79,West,275,0.0,0.0,80,0.00,,,0.00,WeatherCatV1.10B1784,2013-08-04 11:06:00,
2013-08-04 07:11:00,61.2,55.3,29.79,West,275,0.0,0.0,81,0.00,,,0.00,WeatherCatV1.10B1784,2013-08-04 11:11:00,
2013-08-04 07:16:00,61.1,55.2,29.79,West,275,0.0,0.0,81,0.00,,,0.00,WeatherCatV1.10B1784,2013-08-04 11:16:00,
2013-08-04 07:21:00,61.1,55.6,29.79,West,277,0.0,2.0,82,0.00,,,0.00,WeatherCatV1.10B1784,2013-08-04 11:21:00,
2013-08-04 07:26:00,61.1,55.9,29.79,West,277,0.0,3.0,83,0.00,,,0.00,WeatherCatV1.10B1784,2013-08-04 11:26:00,
2013-08-04 07:31:00,61.4,56.2,29.79,West,273,2.0,3.0,83,0.00,,,0.00,WeatherCatV1.10B1784,2013-08-04 11:31:00,
2013-08-04 07:36:00,61.8,56.2,29.78,West,273,0.0,0.0,82,0.00,,,0.00,WeatherCatV1.10B1784,2013-08-04 11:36:00,
2013-08-04 07:41:00,62.2,56.3,29.78,West,272,0.0,0.0,81,0.00,,,0.00,WeatherCatV1.10B1784,2013-08-04 11:41:00,
2013-08-04 07:46:00,62.6,56.7,29.79,West,271,1.0,1.0,81,0.00,,,0.00,WeatherCatV1.10B1784,2013-08-04 11:46:00,
2013-08-04 07:51:00,62.8,56.9,29.79,West,267,1.0,2.0,81,0.00,,,0.00,WeatherCatV1.10B1784,2013-08-04 11:51:00,
2013-08-04 07:56:00,63.0,56.7,29.79,West,271,1.0,1.0,80,0.00,,,0.00,WeatherCatV1.10B1784,2013-08-04 11:56:00,
2013-08-04 08:01:00,63.5,57.6,29.79,West,267,1.0,1.0,81,0.00,,,0.00,WeatherCatV1.10B1784,2013-08-04 12:01:00,
2013-08-04 08:06:00,64.0,57.3,29.79,West,267,0.0,2.0,79,0.00,,,0.00,WeatherCatV1.10B1784,2013-08-04 12:06:00,
2013-08-04 08:11:00,64.6,57.6,29.79,WNW,292,0.0,6.0,78,0.00,,,0.00,WeatherCatV1.10B1784,2013-08-04 12:11:00,
2013-08-04 08:16:00,65.1,58.4,29.79,West,278,0.0,0.0,79,0.00,,,0.00,WeatherCatV1.10B1784,2013-08-04 12:16:00,
2013-08-04 08:21:00,65.4,58.4,29.78,WNW,284,3.0,4.0,78,0.00,,,0.00,WeatherCatV1.10B1784,2013-08-04 12:21:00,
2013-08-04 08:26:00,65.9,58.8,29.78,WSW,245,3.0,3.0,78,0.00,,,0.00,WeatherCatV1.10B1784,2013-08-04 12:26:00,
2013-08-04 08:31:00,66.3,58.1,29.78,West,278,1.0,3.0,75,0.00,,,0.00,WeatherCatV1.10B1784,2013-08-04 12:31:00,
2013-08-04 08:36:00,66.9,58.3,29.79,West,273,0.0,1.0,74,0.00,,,0.00,WeatherCatV1.10B1784,2013-08-04 12:36:00,
2013-08-04 08:41:00,67.6,58.2,29.79,West,267,2.0,5.0,72,0.00,,,0.00,WeatherCatV1.10B1784,2013-08-04 12:41:00,
2013-08-04 08:46:00,67.9,58.1,29.78,WSW,257,0.0,4.0,71,0.00,,,0.00,WeatherCatV1.10B1784,2013-08-04 12:46:00,
2013-08-04 08:51:00,68.3,58.9,29.78,WNW,284,0.0,4.0,72,0.00,,,0.00,WeatherCatV1.10B1784,2013-08-04 12:51:00,
2013-08-04 08:56:00,68.5,58.3,29.78,West,267,0.0,9.0,70,0.00,,,0.00,WeatherCatV1.10B1784,2013-08-04 12:56:00,
2013-08-04 09:01:00,68.8,58.2,29.78,WSW,239,5.0,5.0,69,0.00,,,0.00,WeatherCatV1.10B1784,2013-08-04 13:01:00,
2013-08-04 09:06:00,69.1,58.9,29.78,West,279,1.0,3.0,70,0.00,,,0.00,WeatherCatV1.10B1784,2013-08-04 13:06:00,
2013-08-04 09:11:00,69.3,58.3,29.78,WNW,302,2.0,5.0,68,0.00,,,0.00,WeatherCatV1.10B1784,2013-08-04 13:11:00,
2013-08-04 09:16:00,69.3,57.4,29.78,West,281,2.0,5.0,66,0.00,,,0.00,WeatherCatV1.10B1784,2013-08-04 13:16:00,
2013-08-04 09:21:00,69.5,57.6,29.78,SW,232,3.0,6.0,66,0.00,,,0.00,WeatherCatV1.10B1784,2013-08-04 13:21:00,
2013-08-04 09:26:00,69.7,58.2,29.79,NW,318,4.0,7.0,67,0.00,,,0.00,WeatherCatV1.10B1784,2013-08-04 13:26:00,
2013-08-04 09:31:00,69.9,58.4,29.78,WSW,242,7.0,7.0,67,0.00,,,0.00,WeatherCatV1.10B1784,2013-08-04 13:31:00,
2013-08-04 09:36:00,70.1,57.8,29.78,NW,307,1.0,5.0,65,0.00,,,0.00,WeatherCatV1.10B1784,2013-08-04 13:36:00,
2013-08-04 09:41:00,70.4,58.1,29.78,NW,311,1.0,3.0,65,0.00,,,0.00,WeatherCatV1.10B1784,2013-08-04 13:41:00,
2013-08-04 09:46:00,70.6,57.8,29.78,NNW,329,0.0,5.0,64,0.00,,,0.00,WeatherCatV1.10B1784,2013-08-04 13:46:00,
2013-08-04 09:51:00,70.8,58.4,29.78,NW,308,0.0,3.0,65,0.00,,,0.00,WeatherCatV1.10B1784,2013-08-04 13:51:00,
2013-08-04 09:56:00,71.2,58.4,29.79,SW,233,6.0,8.0,64,0.00,,,0.00,WeatherCatV1.10B1784,2013-08-04 13:56:00,
2013-08-04 10:01:00,71.4,57.7,29.79,West,267,2.0,6.0,62,0.00,,,0.00,WeatherCatV1.10B1784,2013-08-04 14:01:00,
2013-08-04 10:06:00,71.4,58.1,29.79,NW,313,3.0,7.0,63,0.00,,,0.00,WeatherCatV1.10B1784,2013-08-04 14:06:00,
2013-08-04 10:11:00,71.5,59.1,29.79,WSW,257,0.0,5.0,65,0.00,,,0.00,WeatherCatV1.10B1784,2013-08-04 14:11:00,
2013-08-04 10:16:00,71.7,58.9,29.79,West,281,0.0,0.0,64,0.00,,,0.00,WeatherCatV1.10B1784,2013-08-04 14:16:00,
2013-08-04 10:21:00,72.1,59.7,29.79,WNW,287,0.0,1.0,65,0.00,,,0.00,WeatherCatV1.10B1784,2013-08-04 14:21:00,
2013-08-04 10:26:00,72.3,59.0,29.79,West,271,0.0,6.0,63,0.00,,,0.00,WeatherCatV1.10B1784,2013-08-04 14:26:00,
2013-08-04 10:31:00,72.1,59.2,29.78,West,276,1.0,1.0,64,0.00,,,0.00,WeatherCatV1.10B1784,2013-08-04 14:31:00,
2013-08-04 10:36:00,71.7,59.7,29.78,WSW,240,1.0,6.0,66,0.00,,,0.00,WeatherCatV1.10B1784,2013-08-04 14:36:00,
2013-08-04 10:41:00,71.2,58.4,29.78,WSW,250,0.0,1.0,64,0.00,,,0.00,WeatherCatV1.10B1784,2013-08-04 14:41:00,
2013-08-04 10:46:00,71.2,57.5,29.78,West,271,3.0,4.0,62,0.00,,,0.00,WeatherCatV1.10B1784,2013-08-04 14:46:00,
2013-08-04 10:51:00,71.3,57.1,29.78,West,262,0.0,6.0,61,0.00,,,0.00,WeatherCatV1.10B1784,2013-08-04 14:51:00,
2013-08-04 10:56:00,71.7,59.3,29.78,WSW,253,0.0,1.0,65,0.00,,,0.00,WeatherCatV1.10B1784,2013-08-04 14:56:00,
2013-08-04 11:01:00,72.7,61.1,29.78,WSW,252,0.0,2.0,67,0.00,,,0.00,WeatherCatV1.10B1784,2013-08-04 15:01:00,
2013-08-04 11:06:00,72.9,56.8,29.78,WNW,294,0.0,2.0,57,0.00,,,0.00,WeatherCatV1.10B1784,2013-08-04 15:06:00,
2013-08-04 11:11:00,73.1,59.3,29.78,WNW,288,4.0,4.0,62,0.00,,,0.00,WeatherCatV1.10B1784,2013-08-04 15:11:00,
2013-08-04 11:16:00,73.3,58.1,29.78,NW,311,1.0,7.0,59,0.00,,,0.00,WeatherCatV1.10B1784,2013-08-04 15:16:00,
2013-08-04 11:21:00,73.1,59.7,29.78,West,277,0.0,2.0,63,0.00,,,0.00,WeatherCatV1.10B1784,2013-08-04 15:21:00,
2013-08-04 11:26:00,73.0,58.3,29.78,SW,235,0.0,4.0,60,0.00,,,0.00,WeatherCatV1.10B1784,2013-08-04 15:26:00,
2013-08-04 11:31:00,73.1,60.2,29.78,WSW,241,2.0,5.0,64,0.00,,,0.00,WeatherCatV1.10B1784,2013-08-04 15:31:00,
2013-08-04 11:36:00,73.5,59.7,29.78,North,9,0.0,5.0,62,0.00,,,0.00,WeatherCatV1.10B1784,2013-08-04 15:36:00,
2013-08-04 11:41:00,73.0,58.7,29.79,NW,309,0.0,0.0,61,0.00,,,0.00,WeatherCatV1.10B1784,2013-08-04 15:41:00,
2013-08-04 11:46:00,73.3,59.0,29.79,SW,223,5.0,5.0,61,0.00,,,0.00,WeatherCatV1.10B1784,2013-08-04 15:46:00,
2013-08-04 11:51:00,73.5,58.7,29.79,WSW,244,0.0,5.0,60,0.00,,,0.00,WeatherCatV1.10B1784,2013-08-04 15:51:00,
2013-08-04 11:56:00,74.2,58.5,29.78,West,279,0.0,2.0,58,0.00,,,0.00,WeatherCatV1.10B1784,2013-08-04 15:56:00,
2013-08-04 12:01:00,74.8,59.0,29.78,WSW,250,2.0,6.0,58,0.00,,,0.00,WeatherCatV1.10B1784,2013-08-04 16:01:00,
2013-08-04 12:06:00,74.6,58.8,29.78,WNW,300,0.0,5.0,58,0.00,,,0.00,WeatherCatV1.10B1784,2013-08-04 16:06:00,
2013-08-04 12:11:00,74.8,58.0,29.78,North,357,0.0,5.0,56,0.00,,,0.00,WeatherCatV1.10B1784,2013-08-04 16:11:00,
2013-08-04 12:16:00,75.0,60.6,29.78,WSW,238,0.0,7.0,61,0.00,,,0.00,WeatherCatV1.10B1784,2013-08-04 16:16:00,
2013-08-04 12:21:00,75.4,60.5,29.78,West,267,1.0,1.0,60,0.00,,,0.00,WeatherCatV1.10B1784,2013-08-04 16:21:00,
2013-08-04 12:26:00,75.3,58.0,29.78,West,262,0.0,2.0,55,0.00,,,0.00,WeatherCatV1.10B1784,2013-08-04 16:26:00,
2013-08-04 12:31:00,74.7,56.4,29.77,NW,304,0.0,3.0,53,0.00,,,0.00,WeatherCatV1.10B1784,2013-08-04 16:31:00,
2013-08-04 12:36:00,74.4,58.2,29.77,NW,304,0.0,5.0,57,0.00,,,0.00,WeatherCatV1.10B1784,2013-08-04 16:36:00,
2013-08-04 12:41:00,74.8,58.0,29.77,West,262,1.0,3.0,56,0.00,,,0.00,WeatherCatV1.10B1784,2013-08-04 16:41:00,
2013-08-04 12:46:00,75.6,58.8,29.77,West,262,0.0,0.0,56,0.00,,,0.00,WeatherCatV1.10B1784,2013-08-04 16:46:00,
2013-08-04 12:52:00,76.2,61.7,29.77,West,262,0.0,0.0,61,0.00,,,0.00,WeatherCatV1.10B1784,2013-08-04 16:52:00,
2013-08-04 12:57:00,76.3,57.9,29.77,WSW,257,0.0,1.0,53,0.00,,,0.00,WeatherCatV1.10B1784,2013-08-04 16:57:00,
2013-08-04 13:02:00,75.4,58.1,29.77,West,275,0.0,2.0,55,0.00,,,0.00,WeatherCatV1.10B1784,2013-08-04 17:02:00,
2013-08-04 13:07:00,75.5,60.6,29.77,West,275,0.0,2.0,60,0.00,,,0.00,WeatherCatV1.10B1784,2013-08-04 17:07:00,
2013-08-04 13:12:00,75.6,59.8,29.76,West,277,3.0,3.0,58,0.00,,,0.00,WeatherCatV1.10B1784,2013-08-04 17:12:00,
2013-08-04 13:17:00,75.3,58.5,29.76,West,267,0.0,1.0,56,0.00,,,0.00,WeatherCatV1.10B1784,2013-08-04 17:17:00,
2013-08-04 13:22:00,75.5,57.7,29.76,West,267,0.0,0.0,54,0.00,,,0.00,WeatherCatV1.10B1784,2013-08-04 17:22:00,
2013-08-04 13:27:00,75.4,60.1,29.76,West,262,0.0,6.0,59,0.00,,,0.00,WeatherCatV1.10B1784,2013-08-04 17:27:00,
2013-08-04 13:32:00,76.4,58.5,29.76,West,262,0.0,3.0,54,0.00,,,0.00,WeatherCatV1.10B1784,2013-08-04 17:32:00,
2013-08-04 13:37:00,76.8,59.9,29.76,West,267,0.0,3.0,56,0.00,,,0.00,WeatherCatV1.10B1784,2013-08-04 17:37:00,
2013-08-04 13:42:00,77.4,59.4,29.75,West,267,0.0,1.0,54,0.00,,,0.00,WeatherCatV1.10B1784,2013-08-04 17:42:00,
2013-08-04 13:47:00,77.9,57.7,29.75,WSW,257,0.0,4.0,50,0.00,,,0.00,WeatherCatV1.10B1784,2013-08-04 17:47:00,
2013-08-04 13:52:00,77.3,59.9,29.75,WSW,257,0.0,1.0,55,0.00,,,0.00,WeatherCatV1.10B1784,2013-08-04 17:52:00,
2013-08-04 13:57:00,76.4,59.0,29.75,NNW,342,0.0,1.0,55,0.00,,,0.00,WeatherCatV1.10B1784,2013-08-04 17:57:00,
2013-08-04 14:02:00,76.1,56.6,29.75,WNW,296,0.0,4.0,51,0.00,,,0.00,WeatherCatV1.10B1784,2013-08-04 18:02:00,
2013-08-04 14:07:00,76.2,61.3,29.75,WNW,296,0.0,0.0,60,0.00,,,0.00,WeatherCatV1.10B1784,2013-08-04 18:07:00,
2013-08-04 14:12:00,76.7,62.7,29.75,WNW,296,0.0,2.0,62,0.00,,,0.00,WeatherCatV1.10B1784,2013-08-04 18:12:00,
2013-08-04 14:17:00,76.8,59.9,29.75,West,281,1.0,2.0,56,0.00,,,0.00,WeatherCatV1.10B1784,2013-08-04 18:17:00,
2013-08-04 14:22:00,76.6,59.7,29.74,West,278,0.0,4.0,56,0.00,,,0.00,WeatherCatV1.10B1784,2013-08-04 18:22:00,
2013-08-04 14:27:00,76.4,58.0,29.74,West,272,3.0,7.0,53,0.00,,,0.00,WeatherCatV1.10B1784,2013-08-04 18:27:00,
2013-08-04 14:32:00,76.7,57.2,29.75,NW,323,2.0,6.0,51,0.00,,,0.00,WeatherCatV1.10B1784,2013-08-04 18:32:00,
2013-08-04 14:37:00,76.6,56.0,29.75,NNW,329,0.0,5.0,49,0.00,,,0.00,WeatherCatV1.10B1784,2013-08-04 18:37:00,
2013-08-04 14:42:00,76.5,55.9,29.74,NW,312,0.0,3.0,49,0.00,,,0.00,WeatherCatV1.10B1784,2013-08-04 18:42:00,
2013-08-04 14:47:00,76.5,58.1,29.74,NW,324,3.0,4.0,53,0.00,,,0.00,WeatherCatV1.10B1784,2013-08-04 18:47:00,
2013-08-04 14:52:00,76.8,56.7,29.75,NNW,329,0.0,4.0,50,0.00,,,0.00,WeatherCatV1.10B1784,2013-08-04 18:52:00,
2013-08-04 14:57:00,77.2,56.0,29.75,West,279,0.0,5.0,48,0.00,,,0.00,WeatherCatV1.10B1784,2013-08-04 18:57:00,
2013-08-04 15:02:00,77.5,57.9,29.75,WSW,241,0.0,1.0,51,0.00,,,0.00,WeatherCatV1.10B1784,2013-08-04 19:02:00,
2013-08-04 15:07:00,76.8,56.7,29.75,WSW,244,0.0,5.0,50,0.00,,,0.00,WeatherCatV1.10B1784,2013-08-04 19:07:00,
2013-08-04 15:12:00,76.0,58.1,29.75,WNW,299,0.0,0.0,54,0.00,,,0.00,WeatherCatV1.10B1784,2013-08-04 19:12:00,
2013-08-04 15:17:00,76.1,57.7,29.74,WNW,299,0.0,1.0,53,0.00,,,0.00,WeatherCatV1.10B1784,2013-08-04 19:17:00,
2013-08-04 15:22:00,77.1,61.2,29.74,West,262,1.0,1.0,58,0.00,,,0.00,WeatherCatV1.10B1784,2013-08-04 19:22:00,
2013-08-04 15:27:00,77.9,59.4,29.74,West,267,0.0,3.0,53,0.00,,,0.00,WeatherCatV1.10B1784,2013-08-04 19:27:00,
2013-08-04 15:32:00,76.9,56.8,29.74,West,267,0.0,3.0,50,0.00,,,0.00,WeatherCatV1.10B1784,2013-08-04 19:32:00,
2013-08-04 15:37:00,76.4,58.5,29.74,NNW,339,0.0,4.0,54,0.00,,,0.00,WeatherCatV1.10B1784,2013-08-04 19:37:00,
2013-08-04 15:42:00,76.3,57.4,29.74,WNW,286,1.0,2.0,52,0.00,,,0.00,WeatherCatV1.10B1784,2013-08-04 19:42:00,
2013-08-04 15:47:00,77.3,57.7,29.73,WNW,286,0.0,2.0,51,0.00,,,0.00,WeatherCatV1.10B1784,2013-08-04 19:47:00,
2013-08-04 15:52:00,78.1,59.0,29.74,WSW,246,3.0,4.0,52,0.00,,,0.00,WeatherCatV1.10B1784,2013-08-04 19:52:00,
2013-08-04 15:57:00,76.9,56.8,29.74,West,275,0.0,4.0,50,0.00,,,0.00,WeatherCatV1.10B1784,2013-08-04 19:57:00,
2013-08-04 16:02:00,76.4,59.5,29.74,NW,306,1.0,1.0,56,0.00,,,0.00,WeatherCatV1.10B1784,2013-08-04 20:02:00,
2013-08-04 16:07:00,75.7,58.9,29.74,NW,309,0.0,3.0,56,0.00,,,0.00,WeatherCatV1.10B1784,2013-08-04 20:07:00,
2013-08-04 16:12:00,74.9,57.6,29.74,NW,305,1.0,2.0,55,0.00,,,0.00,WeatherCatV1.10B1784,2013-08-04 20:12:00,
2013-08-04 16:17:00,73.9,56.7,29.74,WNW,291,3.0,5.0,55,0.00,,,0.00,WeatherCatV1.10B1784,2013-08-04 20:17:00,
2013-08-04 16:22:00,73.1,57.9,29.75,NW,308,1.0,4.0,59,0.00,,,0.00,WeatherCatV1.10B1784,2013-08-04 20:22:00,
2013-08-04 16:27:00,72.2,57.1,29.76,WNW,298,0.0,10.0,59,0.00,,,0.00,WeatherCatV1.10B1784,2013-08-04 20:27:00,
2013-08-04 16:32:00,71.4,57.2,29.76,WSW,257,2.0,4.0,61,0.00,,,0.00,WeatherCatV1.10B1784,2013-08-04 20:32:00,
2013-08-04 16:37:00,70.3,58.0,29.76,NNW,332,1.0,9.0,65,0.00,,,0.00,WeatherCatV1.10B1784,2013-08-04 20:37:00,
2013-08-04 16:42:00,68.9,58.7,29.76,NW,323,0.0,0.0,70,0.00,,,0.00,WeatherCatV1.10B1784,2013-08-04 20:42:00,
2013-08-04 16:47:00,68.2,58.8,29.76,WNW,302,3.0,7.0,72,0.00,,,0.00,WeatherCatV1.10B1784,2013-08-04 20:47:00,
2013-08-04 16:52:00,67.8,58.8,29.76,West,262,2.0,4.0,73,0.00,,,0.00,WeatherCatV1.10B1784,2013-08-04 20:52:00,
2013-08-04 16:57:00,68.2,58.4,29.76,WSW,242,0.0,3.0,71,0.00,,,0.00,WeatherCatV1.10B1784,2013-08-04 20:57:00,
2013-08-04 17:02:00,69.6,59.8,29.76,SW,232,0.0,6.0,71,0.00,,,0.00,WeatherCatV1.10B1784,2013-08-04 21:02:00,
2013-08-04 17:07:00,70.9,59.4,29.76,NW,319,0.0,5.0,67,0.00,,,0.00,WeatherCatV1.10B1784,2013-08-04 21:07:00,
2013-08-04 17:12:00,71.4,59.0,29.76,NW,325,1.0,5.0,65,0.00,,,0.00,WeatherCatV1.10B1784,2013-08-04 21:12:00,
2013-08-04 17:17:00,71.9,59.5,29.76,WNW,300,0.0,5.0,65,0.00,,,0.00,WeatherCatV1.10B1784,2013-08-04 21:17:00,
2013-08-04 17:22:00,72.3,60.7,29.76,NW,313,1.0,2.0,67,0.00,,,0.00,WeatherCatV1.10B1784,2013-08-04 21:22:00,
2013-08-04 17:27:00,72.5,59.2,29.76,WNW,298,4.0,5.0,63,0.00,,,0.00,WeatherCatV1.10B1784,2013-08-04 21:27:00,
2013-08-04 17:32:00,72.8,58.6,29.76,WSW,257,2.0,3.0,61,0.00,,,0.00,WeatherCatV1.10B1784,2013-08-04 21:32:00,
2013-08-04 17:37:00,73.4,59.1,29.76,WSW,244,0.0,6.0,61,0.00,,,0.00,WeatherCatV1.10B1784,2013-08-04 21:37:00,
2013-08-04 17:42:00,73.6,59.3,29.76,West,275,0.0,4.0,61,0.00,,,0.00,WeatherCatV1.10B1784,2013-08-04 21:42:00,
2013-08-04 17:47:00,73.3,58.6,29.76,West,281,1.0,5.0,60,0.00,,,0.00,WeatherCatV1.10B1784,2013-08-04 21:47:00,
2013-08-04 17:52:00,73.4,59.1,29.76,West,276,0.0,3.0,61,0.00,,,0.00,WeatherCatV1.10B1784,2013-08-04 21:52:00,
2013-08-04 17:57:00,73.8,59.0,29.76,West,273,0.0,2.0,60,0.00,,,0.00,WeatherCatV1.10B1784,2013-08-04 21:57:00,
2013-08-04 18:02:00,73.6,58.8,29.76,West,273,0.0,2.0,60,0.00,,,0.00,WeatherCatV1.10B1784,2013-08-04 22:02:00,
2013-08-04 18:07:00,72.6,58.8,29.76,West,279,0.0,0.0,62,0.00,,,0.00,WeatherCatV1.10B1784,2013-08-04 22:07:00,
2013-08-04 18:12:00,71.7,58.4,29.76,West,279,0.0,1.0,63,0.00,,,0.00,WeatherCatV1.10B1784,2013-08-04 22:12:00,
2013-08-04 18:17:00,70.8,58.0,29.77,West,279,0.0,0.0,64,0.00,,,0.00,WeatherCatV1.10B1784,2013-08-04 22:17:00,
2013-08-04 18:22:00,70.3,58.8,29.77,West,279,0.0,0.0,67,0.00,,,0.00,WeatherCatV1.10B1784,2013-08-04 22:22:00,
2013-08-04 18:27:00,70.5,58.6,29.77,West,279,0.0,0.0,66,0.00,,,0.00,WeatherCatV1.10B1784,2013-08-04 22:27:00,
2013-08-04 18:32:00,70.6,59.1,29.77,West,279,0.0,2.0,67,0.00,,,0.00,WeatherCatV1.10B1784,2013-08-04 22:32:00,
2013-08-04 18:37:00,70.8,58.4,29.78,West,279,0.0,1.0,65,0.00,,,0.00,WeatherCatV1.10B1784,2013-08-04 22:37:00,
2013-08-04 18:42:00,70.9,58.5,29.78,West,276,0.0,4.0,65,0.00,,,0.00,WeatherCatV1.10B1784,2013-08-04 22:42:00,
2013-08-04 18:47:00,70.7,58.8,29.78,West,276,0.0,0.0,66,0.00,,,0.00,WeatherCatV1.10B1784,2013-08-04 22:47:00,
2013-08-04 18:52:00,70.2,59.5,29.78,West,276,0.0,0.0,69,0.00,,,0.00,WeatherCatV1.10B1784,2013-08-04 22:52:00,
2013-08-04 18:57:00,69.5,58.9,29.78,West,276,0.0,0.0,69,0.00,,,0.00,WeatherCatV1.10B1784,2013-08-04 22:57:00,
2013-08-04 19:02:00,69.1,58.9,29.78,West,276,0.0,0.0,70,0.00,,,0.00,WeatherCatV1.10B1784,2013-08-04 23:02:00,
2013-08-04 19:07:00,69.0,58.8,29.78,West,276,0.0,0.0,70,0.00,,,0.00,WeatherCatV1.10B1784,2013-08-04 23:07:00,
2013-08-04 19:12:00,69.0,59.2,29.78,West,276,0.0,0.0,71,0.00,,,0.00,WeatherCatV1.10B1784,2013-08-04 23:12:00,
2013-08-04 19:17:00,68.7,59.3,29.78,West,276,0.0,2.0,72,0.00,,,0.00,WeatherCatV1.10B1784,2013-08-04 23:17:00,
2013-08-04 19:22:00,68.4,59.4,29.78,West,276,0.0,0.0,73,0.00,,,0.00,WeatherCatV1.10B1784,2013-08-04 23:22:00,
2013-08-04 19:27:00,67.9,58.9,29.79,West,276,0.0,1.0,73,0.00,,,0.00,WeatherCatV1.10B1784,2013-08-04 23:27:00,
2013-08-04 19:32:00,67.8,59.2,29.79,West,276,0.0,0.0,74,0.00,,,0.00,WeatherCatV1.10B1784,2013-08-04 23:32:00,
2013-08-04 19:37:00,67.6,59.4,29.79,West,276,0.0,0.0,75,0.00,,,0.00,WeatherCatV1.10B1784,2013-08-04 23:37:00,
2013-08-04 19:42:00,67.3,59.1,29.80,West,276,0.0,0.0,75,0.00,,,0.00,WeatherCatV1.10B1784,2013-08-04 23:42:00,
2013-08-04 19:47:00,66.9,59.1,29.80,West,276,0.0,0.0,76,0.00,,,0.00,WeatherCatV1.10B1784,2013-08-04 23:47:00,
2013-08-04 19:52:00,66.6,58.8,29.80,West,276,0.0,0.0,76,0.00,,,0.00,WeatherCatV1.10B1784,2013-08-04 23:52:00,
2013-08-04 19:57:00,66.5,59.1,29.81,West,276,0.0,0.0,77,0.00,,,0.00,WeatherCatV1.10B1784,2013-08-04 23:57:00,
2013-08-04 20:02:00,66.2,59.1,29.80,West,276,0.0,0.0,78,0.00,,,0.00,WeatherCatV1.10B1784,2013-08-05 00:02:00,
2013-08-04 20:07:00,65.9,58.8,29.80,West,276,0.0,0.0,78,0.00,,,0.00,WeatherCatV1.10B1784,2013-08-05 00:07:00,
2013-08-04 20:12:00,65.7,59.0,29.81,West,276,0.0,0.0,79,0.00,,,0.00,WeatherCatV1.10B1784,2013-08-05 00:12:00,
2013-08-04 20:17:00,65.4,59.1,29.81,West,276,0.0,0.0,80,0.00,,,0.00,WeatherCatV1.10B1784,2013-08-05 00:17:00,
2013-08-04 20:22:00,65.1,58.8,29.81,West,276,0.0,0.0,80,0.00,,,0.00,WeatherCatV1.10B1784,2013-08-05 00:22:00,
2013-08-04 20:27:00,65.0,58.3,29.81,West,276,0.0,0.0,79,0.00,,,0.00,WeatherCatV1.10B1784,2013-08-05 00:27:00,
2013-08-04 20:32:00,64.9,58.2,29.82,West,276,0.0,0.0,79,0.00,,,0.00,WeatherCatV1.10B1784,2013-08-05 00:32:00,
2013-08-04 20:37:00,64.9,57.9,29.82,West,276,0.0,0.0,78,0.00,,,0.00,WeatherCatV1.10B1784,2013-08-05 00:37:00,
2013-08-04 20:42:00,65.0,57.6,29.82,West,275,0.0,4.0,77,0.00,,,0.00,WeatherCatV1.10B1784,2013-08-05 00:42:00,
2013-08-04 20:47:00,65.0,57.2,29.83,West,276,0.0,0.0,76,0.00,,,0.00,WeatherCatV1.10B1784,2013-08-05 00:47:00,
2013-08-04 20:52:00,65.1,57.0,29.83,West,276,0.0,1.0,75,0.00,,,0.00,WeatherCatV1.10B1784,2013-08-05 00:52:00,
2013-08-04 20:57:00,65.0,56.9,29.83,West,276,0.0,0.0,75,0.00,,,0.00,WeatherCatV1.10B1784,2013-08-05 00:57:00,
2013-08-04 21:02:00,64.8,57.0,29.83,West,276,0.0,0.0,76,0.00,,,0.00,WeatherCatV1.10B1784,2013-08-05 01:02:00,
2013-08-04 21:07:00,64.5,57.1,29.83,West,276,0.0,1.0,77,0.00,,,0.00,WeatherCatV1.10B1784,2013-08-05 01:07:00,
2013-08-04 21:12:00,64.2,56.8,29.83,West,276,0.0,0.0,77,0.00,,,0.00,WeatherCatV1.10B1784,2013-08-05 01:12:00,
2013-08-04 21:17:00,64.0,57.0,29.83,West,276,0.0,0.0,78,0.00,,,0.00,WeatherCatV1.10B1784,2013-08-05 01:17:00,
2013-08-04 21:22:00,63.8,57.2,29.83,West,276,0.0,0.0,79,0.00,,,0.00,WeatherCatV1.10B1784,2013-08-05 01:22:00,
2013-08-04 21:27:00,63.5,56.9,29.84,West,276,0.0,0.0,79,0.00,,,0.00,WeatherCatV1.10B1784,2013-08-05 01:27:00,
2013-08-04 21:32:00,63.3,57.0,29.84,West,276,0.0,0.0,80,0.00,,,0.00,WeatherCatV1.10B1784,2013-08-05 01:32:00,
2013-08-04 21:37:00,63.0,56.7,29.84,West,276,0.0,0.0,80,0.00,,,0.00,WeatherCatV1.10B1784,2013-08-05 01:37:00,
2013-08-04 21:42:00,62.9,57.0,29.84,West,276,0.0,0.0,81,0.00,,,0.00,WeatherCatV1.10B1784,2013-08-05 01:42:00,
2013-08-04 21:47:00,62.7,56.1,29.84,West,276,0.0,0.0,79,0.00,,,0.00,WeatherCatV1.10B1784,2013-08-05 01:47:00,
2013-08-04 21:52:00,62.5,55.9,29.84,West,276,0.0,0.0,79,0.00,,,0.00,WeatherCatV1.10B1784,2013-08-05 01:52:00,
2013-08-04 21:57:00,62.6,55.6,29.84,West,277,1.0,1.0,78,0.00,,,0.00,WeatherCatV1.10B1784,2013-08-05 01:57:00,
2013-08-04 22:02:00,62.7,55.7,29.84,West,277,0.0,0.0,78,0.00,,,0.00,WeatherCatV1.10B1784,2013-08-05 02:02:00,
2013-08-04 22:07:00,62.8,55.1,29.84,NW,304,4.0,4.0,76,0.00,,,0.00,WeatherCatV1.10B1784,2013-08-05 02:07:00,
2013-08-04 22:12:00,63.0,54.9,29.84,WNW,296,0.0,0.0,75,0.00,,,0.00,WeatherCatV1.10B1784,2013-08-05 02:12:00,
2013-08-04 22:17:00,62.9,54.8,29.84,WNW,296,3.0,3.0,75,0.00,,,0.00,WeatherCatV1.10B1784,2013-08-05 02:17:00,
2013-08-04 22:22:00,62.8,54.8,29.84,WNW,296,0.0,1.0,75,0.00,,,0.00,WeatherCatV1.10B1784,2013-08-05 02:22:00,
2013-08-04 22:27:00,62.6,54.9,29.84,WNW,296,0.0,1.0,76,0.00,,,0.00,WeatherCatV1.10B1784,2013-08-05 02:27:00,
2013-08-04 22:32:00,62.5,54.5,29.84,WNW,296,0.0,1.0,75,0.00,,,0.00,WeatherCatV1.10B1784,2013-08-05 02:32:00,
2013-08-04 22:37:00,62.4,54.4,29.84,WNW,297,0.0,0.0,75,0.00,,,0.00,WeatherCatV1.10B1784,2013-08-05 02:37:00,
2013-08-04 22:42:00,62.3,53.9,29.85,WNW,297,0.0,1.0,74,0.00,,,0.00,WeatherCatV1.10B1784,2013-08-05 02:42:00,
2013-08-04 22:47:00,62.3,53.9,29.85,WNW,298,0.0,3.0,74,0.00,,,0.00,WeatherCatV1.10B1784,2013-08-05 02:47:00,
2013-08-04 22:52:00,62.2,53.8,29.85,WNW,292,0.0,6.0,74,0.00,,,0.00,WeatherCatV1.10B1784,2013-08-05 02:52:00,
2013-08-04 22:57:00,62.1,54.1,29.85,WNW,292,0.0,2.0,75,0.00,,,0.00,WeatherCatV1.10B1784,2013-08-05 02:57:00,
2013-08-04 23:02:00,61.9,54.2,29.85,WNW,292,0.0,1.0,76,0.00,,,0.00,WeatherCatV1.10B1784,2013-08-05 03:02:00,
2013-08-04 23:07:00,61.7,54.1,29.85,WNW,292,0.0,1.0,76,0.00,,,0.00,WeatherCatV1.10B1784,2013-08-05 03:07:00,
2013-08-04 23:12:00,61.6,54.0,29.85,WNW,293,0.0,0.0,76,0.00,,,0.00,WeatherCatV1.10B1784,2013-08-05 03:12:00,
2013-08-04 23:17:00,61.4,53.8,29.85,WNW,293,0.0,1.0,76,0.00,,,0.00,WeatherCatV1.10B1784,2013-08-05 03:17:00,
2013-08-04 23:22:00,61.3,53.7,29.86,WNW,293,0.0,0.0,76,0.00,,,0.00,WeatherCatV1.10B1784,2013-08-05 03:22:00,
2013-08-04 23:27:00,61.2,53.9,29.86,WNW,293,0.0,0.0,77,0.00,,,0.00,WeatherCatV1.10B1784,2013-08-05 03:27:00,
2013-08-04 23:32:00,61.0,53.7,29.86,WNW,293,0.0,0.0,77,0.00,,,0.00,WeatherCatV1.10B1784,2013-08-05 03:32:00,
2013-08-04 23:37:00,60.8,53.5,29.86,WNW,293,0.0,1.0,77,0.00,,,0.00,WeatherCatV1.10B1784,2013-08-05 03:37:00,
2013-08-04 23:42:00,60.7,53.8,29.86,WNW,293,0.0,0.0,78,0.00,,,0.00,WeatherCatV1.10B1784,2013-08-05 03:42:00,
2013-08-04 23:47:00,60.5,53.6,29.86,WNW,293,0.0,0.0,78,0.00,,,0.00,WeatherCatV1.10B1784,2013-08-05 03:47:00,
2013-08-04 23:52:00,60.4,53.5,29.86,WNW,293,0.0,0.0,78,0.00,,,0.00,WeatherCatV1.10B1784,2013-08-05 03:52:00,
2013-08-04 23:57:00,60.2,53.3,29.86,WNW,293,0.0,0.0,78,0.00,,,0.00,WeatherCatV1.10B1784,2013-08-05 03:57:00,